• In Romania
  • List of Countries
  • For 7 days
  • Water Temperature
  • Satellite Maps
  • Weather Map
  • Weather Widgets
  • user-avatar
    Login

    Hourly Weather Folkern

    Today, 21 April, Saturday

    Time Temperature Precipitation Wind Pressure Humidity
    00:00 +7°C° 0 mm 4 mps 765 mmHg 92%
    01:00 +7°C° 0 mm 5 mps 764 mmHg 92%
    02:00 +7°C° 0 mm 5 mps 764 mmHg 92%
    03:00 +7°C° 0 mm 6 mps 764 mmHg 93%
    04:00 +7°C° 0 mm 6 mps 763 mmHg 92%
    05:00 +6°C° 0 mm 7 mps 763 mmHg 92%
    06:00 +6°C° 0 mm 8 mps 763 mmHg 91%
    07:00 +6°C° 0 mm 8 mps 762 mmHg 88%
    08:00 +7°C° 0 mm 9 mps 762 mmHg 85%
    09:00 +7°C° 0 mm 9 mps 761 mmHg 82%
    10:00 +7°C° 0.1 mm 9 mps 761 mmHg 80%
    11:00 +8°C° 0.1 mm 9 mps 760 mmHg 77%
    12:00 +8°C° 0 mm 9 mps 760 mmHg 76%
    13:00 +8°C° 0.4 mm 9 mps 759 mmHg 76%
    14:00 +8°C° 0.4 mm 9 mps 759 mmHg 77%
    15:00 +9°C° 0.4 mm 8 mps 758 mmHg 78%
    16:00 +9°C° 0.2 mm 8 mps 757 mmHg 79%
    17:00 +9°C° 0.2 mm 7 mps 757 mmHg 80%
    18:00 +9°C° 0.2 mm 6 mps 756 mmHg 81%
    19:00 +9°C° 0 mm 6 mps 756 mmHg 81%
    20:00 +9°C° 0 mm 6 mps 755 mmHg 80%
    21:00 +9°C° 0 mm 6 mps 754 mmHg 80%
    22:00 +9°C° 0.4 mm 6 mps 754 mmHg 83%
    23:00 +8°C° 0.4 mm 7 mps 753 mmHg 85%

    Tomorrow, 22 April, Sunday

    Time Temperature Precipitation Wind Pressure Humidity
    00:00 +8°C° 0.4 mm 7 mps 753 mmHg 88%
    01:00 +8°C° 0.3 mm 7 mps 752 mmHg 89%
    02:00 +7°C° 0.3 mm 8 mps 752 mmHg 90%
    03:00 +7°C° 0.3 mm 8 mps 751 mmHg 92%
    04:00 +7°C° 0.3 mm 8 mps 751 mmHg 93%
    05:00 +8°C° 0.3 mm 7 mps 750 mmHg 94%
    06:00 +6°C° 0.3 mm 7 mps 750 mmHg 95%
    07:00 +8°C° 0.1 mm 7 mps 750 mmHg 93%
    08:00 +8°C° 0.1 mm 7 mps 750 mmHg 91%
    09:00 +8°C° 0.1 mm 7 mps 749 mmHg 89%
    10:00 +9°C° 0 mm 8 mps 749 mmHg 86%
    11:00 +9°C° 0 mm 8 mps 749 mmHg 82%
    12:00 +8°C° 0 mm 9 mps 749 mmHg 79%
    13:00 +8°C° 0.1 mm 9 mps 749 mmHg 80%
    14:00 +8°C° 0.1 mm 9 mps 748 mmHg 82%
    15:00 +7°C° 0.1 mm 10 mps 748 mmHg 84%
    16:00 +7°C° 0.1 mm 9 mps 748 mmHg 86%
    17:00 +7°C° 0.1 mm 9 mps 747 mmHg 87%
    18:00 +7°C° 0.1 mm 9 mps 747 mmHg 89%
    19:00 +7°C° 0.2 mm 9 mps 747 mmHg 89%
    20:00 +7°C° 0.2 mm 9 mps 748 mmHg 89%
    21:00 +7°C° 0.2 mm 9 mps 748 mmHg 89%
    22:00 +7°C° 0.1 mm 10 mps 748 mmHg 90%
    23:00 +7°C° 0.1 mm 10 mps 749 mmHg 90%

    Day after tomorrow, 23 April, Monday

    Time Temperature Precipitation Wind Pressure Humidity
    00:00 +7°C° 0.1 mm 10 mps 749 mmHg 91%
    01:00 +7°C° 0.1 mm 10 mps 750 mmHg 89%
    02:00 +7°C° 0.1 mm 10 mps 750 mmHg 86%
    03:00 +7°C° 0.1 mm 10 mps 751 mmHg 84%
    04:00 +7°C° 0 mm 9 mps 751 mmHg 85%
    05:00 +6°C° 0 mm 9 mps 752 mmHg 86%
    06:00 +6°C° 0 mm 8 mps 753 mmHg 86%
    07:00 +7°C° 0 mm 8 mps 753 mmHg 85%
    08:00 +8°C° 0 mm 7 mps 753 mmHg 84%
    09:00 +8°C° 0 mm 7 mps 753 mmHg 83%
    10:00 +8°C° 0.1 mm 7 mps 753 mmHg 81%
    11:00 +9°C° 0.1 mm 8 mps 752 mmHg 79%
    12:00 +9°C° 0.1 mm 8 mps 752 mmHg 77%
    13:00 +7°C° 0.5 mm 8 mps 752 mmHg 82%
    14:00 +7°C° 0.5 mm 9 mps 751 mmHg 87%
    15:00 +6°C° 0.5 mm 10 mps 751 mmHg 91%
    16:00 +7°C° 0.1 mm 11 mps 751 mmHg 90%
    17:00 +7°C° 0.1 mm 12 mps 751 mmHg 88%
    18:00 +7°C° 0.1 mm 13 mps 751 mmHg 86%
    19:00 +7°C° 0.1 mm 12 mps 752 mmHg 83%
    20:00 +6°C° 0.1 mm 11 mps 752 mmHg 80%
    21:00 +6°C° 0.1 mm 11 mps 752 mmHg 76%
    22:00 +6°C° 0.1 mm 10 mps 753 mmHg 76%
    23:00 +6°C° 0.1 mm 10 mps 753 mmHg 75%

    24 April, Tuesday

    Time Temperature Precipitation Wind Pressure Humidity
    00:00 +6°C° 0.1 mm 9 mps 753 mmHg 74%
    01:00 +6°C° 0.3 mm 10 mps 753 mmHg 75%
    02:00 +6°C° 0.3 mm 10 mps 753 mmHg 76%
    03:00 +6°C° 0.3 mm 10 mps 753 mmHg 77%
    04:00 +6°C° 0.1 mm 9 mps 753 mmHg 78%
    05:00 +6°C° 0.1 mm 9 mps 753 mmHg 78%
    06:00 +6°C° 0.1 mm 8 mps 754 mmHg 79%
    07:00 +6°C° 0.1 mm 8 mps 754 mmHg 77%
    08:00 +8°C° 0.1 mm 7 mps 754 mmHg 76%
    09:00 +8°C° 0.1 mm 7 mps 754 mmHg 75%
    10:00 +8°C° 0.1 mm 7 mps 754 mmHg 73%
    11:00 +9°C° 0.1 mm 7 mps 754 mmHg 72%
    12:00 +9°C° 0.1 mm 6 mps 754 mmHg 70%
    13:00 +9°C° 0.1 mm 6 mps 754 mmHg 71%
    14:00 +9°C° 0.1 mm 6 mps 754 mmHg 71%
    15:00 +9°C° 0.1 mm 6 mps 753 mmHg 72%
    16:00 +9°C° 0.1 mm 6 mps 753 mmHg 73%
    17:00 +8°C° 0.1 mm 6 mps 753 mmHg 75%
    18:00 +8°C° 0.1 mm 5 mps 752 mmHg 76%
    19:00 +8°C° 0.1 mm 5 mps 752 mmHg 80%
    20:00 +7°C° 0.1 mm 5 mps 752 mmHg 83%
    21:00 +7°C° 0.1 mm 5 mps 752 mmHg 87%
    22:00 +7°C° 0.3 mm 6 mps 751 mmHg 87%
    23:00 +7°C° 0.3 mm 6 mps 751 mmHg 87%

    25 April, Wednesday

    Time Temperature Precipitation Wind Pressure Humidity
    00:00 +7°C° 0.3 mm 6 mps 751 mmHg 87%
    01:00 +6°C° 0.4 mm 7 mps 750 mmHg 86%
    02:00 +6°C° 0.4 mm 7 mps 750 mmHg 85%
    03:00 +6°C° 0.4 mm 7 mps 749 mmHg 83%
    04:00 +6°C° 0.4 mm 7 mps 749 mmHg 83%
    05:00 +6°C° 0.4 mm 8 mps 749 mmHg 82%
    06:00 +6°C° 0.4 mm 8 mps 748 mmHg 82%
    07:00 +6°C° 0.2 mm 8 mps 748 mmHg 79%
    08:00 +7°C° 0.2 mm 8 mps 748 mmHg 76%
    09:00 +7°C° 0.2 mm 8 mps 749 mmHg 74%
    10:00 +7°C° 0.2 mm 8 mps 748 mmHg 72%
    11:00 +7°C° 0.2 mm 8 mps 748 mmHg 70%
    12:00 +9°C° 0.2 mm 8 mps 748 mmHg 69%
    13:00 +8°C° 0.1 mm 9 mps 748 mmHg 69%
    14:00 +8°C° 0.1 mm 9 mps 748 mmHg 69%
    15:00 +7°C° 0.1 mm 9 mps 748 mmHg 69%
    16:00 +7°C° 0.2 mm 9 mps 748 mmHg 70%
    17:00 +7°C° 0.2 mm 8 mps 748 mmHg 71%
    18:00 +7°C° 0.2 mm 8 mps 748 mmHg 71%
    19:00 +6°C° 0.2 mm 8 mps 748 mmHg 73%
    20:00 +6°C° 0.2 mm 8 mps 748 mmHg 75%
    21:00 +6°C° 0.2 mm 8 mps 748 mmHg 76%
    22:00 +6°C° 0.2 mm 8 mps 748 mmHg 77%
    23:00 +6°C° 0.2 mm 8 mps 749 mmHg 78%

    26 April, Thursday

    Time Temperature Precipitation Wind Pressure Humidity
    00:00 +5°C° 0.2 mm 8 mps 749 mmHg 78%
    01:00 +6°C° 0.2 mm 9 mps 749 mmHg 79%
    02:00 +6°C° 0.2 mm 9 mps 749 mmHg 79%
    03:00 +6°C° 0.2 mm 9 mps 749 mmHg 79%
    04:00 +6°C° 0 mm 9 mps 750 mmHg 79%
    05:00 +6°C° 0 mm 9 mps 750 mmHg 80%
    06:00 +6°C° 0 mm 9 mps 750 mmHg 80%
    07:00 +6°C° 0.3 mm 9 mps 751 mmHg 79%
    08:00 +7°C° 0.3 mm 9 mps 752 mmHg 78%
    09:00 +7°C° 0.3 mm 8 mps 753 mmHg 76%
    10:00 +7°C° 0.4 mm 8 mps 754 mmHg 76%
    11:00 +7°C° 0.4 mm 8 mps 754 mmHg 76%
    12:00 +7°C° 0.4 mm 8 mps 755 mmHg 76%
    13:00 +6°C° 0.1 mm 7 mps 756 mmHg 75%
    14:00 +6°C° 0.1 mm 7 mps 756 mmHg 73%
    15:00 +6°C° 0.1 mm 7 mps 757 mmHg 72%
    16:00 +6°C° 0 mm 7 mps 757 mmHg 71%
    17:00 +7°C° 0 mm 6 mps 758 mmHg 71%
    18:00 +7°C° 0 mm 6 mps 758 mmHg 71%
    19:00 +5°C° 0.1 mm 6 mps 759 mmHg 72%
    20:00 +6°C° 0.1 mm 5 mps 760 mmHg 73%
    21:00 +6°C° 0.1 mm 5 mps 760 mmHg 75%
    22:00 +5°C° 0.1 mm 6 mps 760 mmHg 76%
    23:00 +5°C° 0.1 mm 6 mps 761 mmHg 77%
    Show more